Regional Weather Roundup
Issued by NWS Jackson, KY

Home | Current Version | Previous Version | Graphics & Text | Print | Product List | Glossary On
Versions: 1 2 3 4 5 6 7 8 9 10 11 12 13 14 15 16 17 18 19 20 21 22 23 24 25 26 27 28 29 30 31 32 33 34 35 36 37 38 39 40 41 42 43 44 45 46 47 48 49 50
000
ASUS43 KJKL 300210
RWRJKL

EAST KENTUCKY HOURLY WEATHER ROUNDUP
NATIONAL WEATHER SERVICE JACKSON KY
1000 PM EDT WED OCT 29 2014

NOTE: "FAIR" INDICATES FEW OR NO CLOUDS BELOW 12,000 FEET WITH
NO SIGNIFICANT WEATHER AND/OR OBSTRUCTIONS TO VISIBILITY.

* THESE REPORTS ARE NOT UNDER NWS QUALITY CONTROL AND MAY NOT
  REPORT WEATHER SUCH AS PRECIPITATION AND FOG.

KYZ079-080-083-085-087-088-110-112-115-119-120-300300
...EASTERN KENTUCKY...

CITY           SKY/WX    TMP DP  RH WIND       PRES   REMARKS
JACKSON        CLEAR     52  36  54 W3        30.09R
LONDON         CLEAR     47  40  76 CALM      30.10R
SOMERSET*      CLEAR     45  41  87 CALM      30.12R
MONTICELLO*    CLEAR     41  40  96 CALM      30.13R
WILLIAMSBURG*  CLEAR     45  39  81 CALM      30.11
MIDDLESBORO*   CLEAR     44  41  91 CALM      30.12R
HARLAN APT*    CLEAR     45  41  87 CALM      30.10S
BLACK MTN*       N/A     41  30  65 SW2         N/A
PIKEVILLE APT* CLEAR     52  36  54 CALM      30.08R
BIG SANDY*     CLEAR     53  37  53 W3        30.07S
MOREHEAD APT*  CLEAR     50  36  57 N6        30.11R
$$

KYZ035-036-041-042-044-050-067-078-099-300300
...CENTRAL KENTUCKY...

CITY           SKY/WX    TMP DP  RH WIND       PRES   REMARKS
MT STERLING*   CLEAR     48  36  61 N6        30.12R
FLEMING/MASON* CLEAR     46  36  66 N9        30.13R
DANVILLE*      CLEAR     45  34  65 NW5       30.12S
RICHMOND*      CLEAR     50  34  53 NW5       30.10R
LEXINGTON      CLEAR     49  36  61 NW8       30.11R
FRANKFORT      CLEAR     48  35  60 NW5       30.11R
$$

KYZ091>093-OHZ055-061-077-WVZ005-015-034-035-042-300300
...SOUTHERN OHIO/WEST VIRGINIA...

CITY           SKY/WX    TMP DP  RH WIND       PRES   REMARKS
COVINGTON      PTCLDY    46  34  62 N6        30.13R
COLUMBUS       CLOUDY    46  32  58 NW10      30.10R
DAYTON         CLOUDY    46  35  65 NW7       30.13S
WILMINGTON     PTCLDY    42  33  70 NW3       30.11R
HUNTINGTON     CLEAR     49  37  63 N10G20    30.08R
CHARLESTON     MOCLDY    48  41  76 CALM      30.05R
PINEVILLE*     CLEAR     43  43 100 MISG      30.12R
BECKLEY        CLEAR     46  35  65 W3        30.06R
BLUEFIELD      PTCLDY    48  35  60 W5        30.07S
$$

VAZ002-007-008-TNZ017-027-036-066-071-300300
...SOUTHWEST VIRGINIA/EAST TENNESSEE...

CITY           SKY/WX    TMP DP  RH WIND       PRES   REMARKS
WISE*          CLEAR     46  32  57 W3        30.10S
JONESVILLE*    CLEAR     41  41 100 CALM      30.12S
ABINGDON*      MOCLDY    46  44  93 CALM      30.09S
BRISTOL        PTCLDY    44  42  93 CALM      30.10S
KNOXVILLE      PTCLDY    49  45  86 NE3       30.10R
OAK RIDGE      MOCLDY    49  47  93 CALM      30.12R
CROSSVILLE     CLOUDY    51  37  58 CALM      30.12S
NASHVILLE      CLEAR     54  36  50 NW3       30.12S
$$

...KEY TO REMARKS...
VSB - VISIBILITY IN MILES
WCI - WIND CHILL INDEX
HX  - HEAT INDEX

$$



USA.gov is the U.S. government's official web portal to all federal, state and local government web resources and services.